Preview of NWS' New Version of Forecast
This preview is not operational and should not be used for support decisions.

Regional Weather Roundup (RWR)

Issued by National Weather Service (NWS)

                            
000
ASPQ40 PGUM 182110
RWRPQ 
WEATHER ROUNDUP FOR THE MARIANAS AND MICRONESIA
NATIONAL WEATHER SERVICE TIYAN GU
700 AM CHST WED JUN 19 2019

GUZ001>004-182200-
MARIANA ISLANDS-
  
CITY           SKY/WX    TMP DP  RH WIND       PRES   REMARKS
GUAM AIRPORT   PTSUNNY   82  73  74 E6        29.87R                  
ANDERSEN AFB   MOSUNNY   81  75  83 E8        29.88R                  
ROTA AIRPORT   MOSUNNY   79  73  83 E13       29.86R                  
TINIAN AP      MOSUNNY   82  73  74 E8        29.86R                  
SAIPAN AP      MOSUNNY   82  75  78 E14       29.87R                  

$$

PMZ161-182200-
REPUBLIC OF PALAU-
  
CITY           SKY/WX    TMP DP  RH WIND       PRES   REMARKS
KOROR AP       NOT AVBL                                               
KOROR WSO      NOT AVBL                                               

$$

PMZ171>174-182200-
FEDERATED STATES OF MICRONESIA-
  
CITY           SKY/WX    TMP DP  RH WIND       PRES   REMARKS
YAP AIRPORT    MOCLDY    81  77  89 VRB3      29.80R                  
CHUUK AP       CLOUDY    81  77  89 NE10      29.82R                  
POHNPEI AP     LGT RAIN  79  77  94 E3        29.84R                  
POHNPEI WSO    LGT RAIN  77  75  94 CALM      29.87R                  
KOSRAE AP      NOT AVBL                                               

$$

PMZ181-182200-
REPUBLIC OF THE MARSHALL ISLANDS-
  
CITY           SKY/WX    TMP DP  RH WIND       PRES   REMARKS
KWAJALEIN AP   MOSUNNY   84  75  74 E15       29.83S HX  92           
MAJURO AP      PTSUNNY   84  77  79 NE18      29.82R HX  94           
MAJURO WSO     MOSUNNY   84  77  79 E10       29.80R HX  94           

$$